AIZ154 LCPH-LLBG

Flight info

Callsign AIZ154
Flight time 0h 35m
Altitude 25000
Route ESERI DCT IDAKU L35 PIKOG L609 ZUKKO
Aircraft A321/M-SDE3FGHIRWY/LB1

Departure

Time 2026-05-08 19:19
Airport Paphos International Airport (LCPH)

Arrival

Time 2026-05-08 19:54
Airport Ben Gurion International Airport (LLBG)
Time Latitude Longitude Altitude Speed Heading
2026-05-08 19:19 34.60629 32.49928 5022 ft 283 kts 220°
2026-05-08 19:19 34.59093 32.48428 5801 ft 284 kts 218°
2026-05-08 19:19 34.57516 32.46945 6501 ft 289 kts 218°
2026-05-08 19:19 34.55893 32.45457 7133 ft 294 kts 217°
2026-05-08 19:20 34.54245 32.43970 7829 ft 297 kts 217°
2026-05-08 19:20 34.53141 32.42980 8277 ft 300 kts 218°
2026-05-08 19:20 34.50845 32.41037 9233 ft 303 kts 208°
2026-05-08 19:20 34.48835 32.40246 9885 ft 307 kts 187°
2026-05-08 19:21 34.46689 32.40313 10360 ft 317 kts 168°
2026-05-08 19:21 34.44586 32.41338 10475 ft 337 kts 147°
2026-05-08 19:21 34.42578 32.42963 10600 ft 357 kts 146°
2026-05-08 19:21 34.40466 32.44676 10736 ft 374 kts 146°
2026-05-08 19:22 34.38273 32.46438 11163 ft 381 kts 146°
2026-05-08 19:22 34.36051 32.48207 11738 ft 384 kts 147°
2026-05-08 19:22 34.33803 32.49986 12265 ft 388 kts 147°
2026-05-08 19:22 34.31572 32.51751 13211 ft 378 kts 148°
2026-05-08 19:23 34.29404 32.53465 13956 ft 377 kts 148°
2026-05-08 19:23 34.27206 32.55202 14493 ft 379 kts 148°
2026-05-08 19:23 34.24988 32.56954 15013 ft 382 kts 148°
2026-05-08 19:23 34.22748 32.58720 15509 ft 386 kts 148°
2026-05-08 19:24 34.20496 32.60494 16014 ft 389 kts 148°
2026-05-08 19:24 34.18222 32.62288 16488 ft 392 kts 148°
2026-05-08 19:24 34.15944 32.64129 16978 ft 395 kts 147°
2026-05-08 19:24 34.13664 32.66009 17454 ft 398 kts 147°
2026-05-08 19:25 34.11378 32.67917 17924 ft 402 kts 147°
2026-05-08 19:25 34.09076 32.69851 18386 ft 405 kts 147°
2026-05-08 19:25 34.06755 32.71803 18780 ft 408 kts 147°
2026-05-08 19:25 34.04423 32.73760 19265 ft 406 kts 147°
2026-05-08 19:26 34.02108 32.75697 19833 ft 405 kts 147°
2026-05-08 19:26 33.99786 32.77634 20266 ft 407 kts 147°
2026-05-08 19:26 33.97456 32.79576 20667 ft 410 kts 147°
2026-05-08 19:26 33.95104 32.81534 21047 ft 413 kts 147°
2026-05-08 19:27 33.92735 32.83506 21434 ft 415 kts 147°
2026-05-08 19:27 33.90348 32.85495 21803 ft 418 kts 147°
2026-05-08 19:27 33.87945 32.87493 22151 ft 421 kts 147°
2026-05-08 19:27 33.85524 32.89503 22494 ft 424 kts 147°
2026-05-08 19:28 33.83124 32.91493 22851 ft 426 kts 147°
2026-05-08 19:28 33.80671 32.93525 23179 ft 429 kts 147°
2026-05-08 19:28 33.78183 32.95583 23503 ft 432 kts 147°
2026-05-08 19:28 33.75722 32.97617 23803 ft 434 kts 147°
2026-05-08 19:29 33.73237 32.99671 24135 ft 434 kts 147°
2026-05-08 19:29 33.70745 33.01732 24393 ft 437 kts 147°
2026-05-08 19:29 33.68234 33.03810 24624 ft 440 kts 147°
2026-05-08 19:29 33.65703 33.05905 24850 ft 443 kts 147°
2026-05-08 19:30 33.63152 33.08010 25053 ft 448 kts 147°
2026-05-08 19:30 33.60563 33.10140 25111 ft 456 kts 147°
2026-05-08 19:30 33.57913 33.12316 25119 ft 466 kts 147°
2026-05-08 19:30 33.55212 33.14532 25124 ft 476 kts 147°
2026-05-08 19:31 33.52463 33.16792 25117 ft 480 kts 147°
2026-05-08 19:31 33.49710 33.19061 25120 ft 481 kts 147°
2026-05-08 19:31 33.46951 33.21336 25113 ft 482 kts 147°
2026-05-08 19:31 33.44186 33.23611 25118 ft 482 kts 147°
2026-05-08 19:32 33.41424 33.25878 25110 ft 482 kts 147°
2026-05-08 19:32 33.38658 33.28139 25118 ft 482 kts 147°
2026-05-08 19:32 33.35928 33.30367 25090 ft 482 kts 147°
2026-05-08 19:32 33.33159 33.32629 24849 ft 482 kts 147°
2026-05-08 19:33 33.30393 33.34896 24623 ft 482 kts 147°
2026-05-08 19:33 33.27632 33.37156 24399 ft 482 kts 147°
2026-05-08 19:33 33.24860 33.39418 24170 ft 480 kts 147°
2026-05-08 19:33 33.22107 33.41665 23946 ft 478 kts 147°
2026-05-08 19:34 33.19365 33.43900 23723 ft 477 kts 147°
2026-05-08 19:34 33.16625 33.46127 23464 ft 475 kts 147°
2026-05-08 19:34 33.13904 33.48336 23198 ft 472 kts 147°
2026-05-08 19:34 33.11191 33.50542 22934 ft 470 kts 147°
2026-05-08 19:35 33.08496 33.52734 22673 ft 468 kts 147°
2026-05-08 19:35 33.05822 33.54907 22414 ft 465 kts 147°
2026-05-08 19:35 33.03147 33.57076 22157 ft 463 kts 147°
2026-05-08 19:35 33.00488 33.59228 21892 ft 460 kts 147°
2026-05-08 19:36 32.97842 33.61366 21639 ft 458 kts 147°
2026-05-08 19:36 32.95249 33.63461 21390 ft 455 kts 147°
2026-05-08 19:36 32.92644 33.65569 20964 ft 449 kts 147°
2026-05-08 19:36 32.90076 33.67647 20381 ft 442 kts 147°
2026-05-08 19:37 32.87552 33.69689 19827 ft 435 kts 147°
2026-05-08 19:37 32.85074 33.71693 19296 ft 427 kts 147°
2026-05-08 19:37 32.82641 33.73657 18789 ft 419 kts 147°
2026-05-08 19:37 32.80250 33.75585 18293 ft 411 kts 147°
2026-05-08 19:38 32.77903 33.77473 17793 ft 404 kts 147°
2026-05-08 19:38 32.75600 33.79325 17333 ft 397 kts 147°
2026-05-08 19:38 32.73318 33.81157 16804 ft 393 kts 147°
2026-05-08 19:38 32.71061 33.82967 16337 ft 390 kts 147°
2026-05-08 19:39 32.68817 33.84767 15881 ft 388 kts 147°
2026-05-08 19:39 32.66592 33.86554 15409 ft 385 kts 147°
2026-05-08 19:39 32.64413 33.88304 14947 ft 382 kts 147°
2026-05-08 19:39 32.62222 33.90063 14455 ft 379 kts 147°
2026-05-08 19:40 32.60042 33.91812 13966 ft 376 kts 147°
2026-05-08 19:40 32.57876 33.93544 13419 ft 374 kts 147°
2026-05-08 19:40 32.55819 33.95397 12924 ft 371 kts 138°
2026-05-08 19:40 32.53986 33.97642 12710 ft 388 kts 134°
2026-05-08 19:41 32.52134 33.99974 12407 ft 387 kts 134°
2026-05-08 19:41 32.50322 34.02245 12253 ft 371 kts 134°
2026-05-08 19:41 32.48586 34.04410 12123 ft 353 kts 134°
2026-05-08 19:41 32.46953 34.06441 11892 ft 329 kts 135°
2026-05-08 19:42 32.45409 34.08358 11325 ft 319 kts 135°
2026-05-08 19:42 32.43893 34.10237 11146 ft 313 kts 135°
2026-05-08 19:42 32.42470 34.12176 10956 ft 312 kts 126°
2026-05-08 19:42 32.41276 34.14314 10710 ft 310 kts 124°
2026-05-08 19:43 32.40083 34.16427 10471 ft 308 kts 125°
2026-05-08 19:43 32.38881 34.18523 10226 ft 307 kts 126°
2026-05-08 19:43 32.37680 34.20602 9977 ft 305 kts 125°
2026-05-08 19:43 32.36480 34.22677 9687 ft 305 kts 126°
2026-05-08 19:44 32.35291 34.24738 9400 ft 301 kts 126°
2026-05-08 19:44 32.34116 34.26783 9128 ft 299 kts 125°
2026-05-08 19:44 32.32955 34.28808 8854 ft 297 kts 126°
2026-05-08 19:44 32.31811 34.30799 8581 ft 296 kts 126°
2026-05-08 19:45 32.30655 34.32805 8307 ft 295 kts 126°
2026-05-08 19:45 32.29503 34.34803 8025 ft 294 kts 126°
2026-05-08 19:45 32.28357 34.36792 7767 ft 291 kts 126°
2026-05-08 19:45 32.27219 34.38767 7506 ft 289 kts 126°
2026-05-08 19:46 32.26095 34.40716 7239 ft 287 kts 126°
2026-05-08 19:46 32.24976 34.42653 6977 ft 285 kts 126°
2026-05-08 19:46 32.22743 34.46526 6459 ft 283 kts 125°
2026-05-08 19:47 32.21682 34.48458 6180 ft 276 kts 124°
2026-05-08 19:47 32.20669 34.50353 5902 ft 269 kts 123°
2026-05-08 19:47 32.19687 34.52201 5631 ft 263 kts 124°
2026-05-08 19:47 32.18722 34.54012 5356 ft 259 kts 123°
2026-05-08 19:48 32.17767 34.55790 5090 ft 261 kts 124°
2026-05-08 19:48 32.16657 34.57477 4821 ft 260 kts 128°
2026-05-08 19:48 32.15640 34.59196 4561 ft 252 kts 121°
2026-05-08 19:48 32.14735 34.60944 4287 ft 243 kts 118°
2026-05-08 19:49 32.13878 34.62622 4084 ft 233 kts 118°
2026-05-08 19:49 32.13055 34.64218 3918 ft 221 kts 117°
2026-05-08 19:49 32.12280 34.65715 3810 ft 206 kts 118°
2026-05-08 19:49 32.11553 34.67124 3690 ft 197 kts 117°
2026-05-08 19:50 32.10836 34.68513 3527 ft 198 kts 116°
2026-05-08 19:50 32.10118 34.69901 3306 ft 197 kts 116°
2026-05-08 19:50 32.09408 34.71275 3047 ft 196 kts 116°
2026-05-08 19:50 32.08705 34.72632 2794 ft 192 kts 115°
2026-05-08 19:51 32.08017 34.73959 2543 ft 188 kts 115°
2026-05-08 19:51 32.07352 34.75244 2307 ft 184 kts 116°
2026-05-08 19:51 32.06688 34.76525 2069 ft 182 kts 116°
2026-05-08 19:51 32.06037 34.77782 1832 ft 176 kts 117°
2026-05-08 19:52 32.05413 34.78985 1611 ft 168 kts 117°
2026-05-08 19:52 32.04823 34.80121 1384 ft 159 kts 118°
2026-05-08 19:52 32.04255 34.81217 1175 ft 155 kts 118°
2026-05-08 19:52 32.03698 34.82292 980 ft 153 kts 119°
2026-05-08 19:53 32.03146 34.83355 789 ft 152 kts 119°
2026-05-08 19:53 32.02597 34.84413 609 ft 150 kts 120°
2026-05-08 19:53 32.02052 34.85462 394 ft 150 kts 120°
2026-05-08 19:53 32.01510 34.86506 216 ft 149 kts 120°
2026-05-08 19:54 32.01034 34.87459 118 ft 118 kts 118°
2026-05-08 19:54 32.00912 34.87717 117 ft 0 kts 120°